Showing default

TIANQI-6, 46810

Orbit data source: Space-Track

TIANQI-6, 46810 is a payload satellite owned by Guodian Gaokeji (CN) in LEO that was launched on Mon, 26 Oct 2020 UTC via a CHANG ZHENG 2C launch vehicle from the Xichang Space Center, China (XSC). Payload-class satellites include a variety of spacecraft equipped with specific instruments for various scientific and technological missions. These include communications satellites like Starlink; space stations such as the ISS; scientific satellites like the Hubble; Earth observation satellites from companies like Planet Labs, Umbra, and HawkEye 360; GPS; miniature CubeSats for education and research; and military/defense satellites.

Loading next visibility...
Identifier
46810, 2020-076D
Orbit
LEO
Country
Flag of CNCN / PRC
Related business
Manufacturer
Shanghai ASES
Mission
Operational Commercial Communications
Bus & Motor
STARLIGHTB, Unknown motor
Mass
40 kg wet, ~40 kg dry
Launch date (UTC)
2020-10-26 (6 years ago)
Launch vehicle
CHANG ZHENG 2C
Launch site
Xichang Space Center, China (XSC)
Object type
Payload
Rocket body
Debris
Shape & HBR
Box, 0.3 m
Radar Cross Section
0.195 m², Medium (>0.1 m² and < 1m²)

Expand to show TLE details & history
Last TLE update: 13 hours ago

TLE from 13 hours ago
0 TIANQI-6
1 46810U 20076D   26129.84716208  .00002734  00000-0  18091-3 0  9998
2 46810  34.9994 283.7225 0010306 195.3122 164.7276 15.06935505302794
Epoch: 2026-05-09T20:19Z
TLE epoch observation values (Epoch: 2026-05-09T20:19:54.803Z)
Latitude
-0.00007°
Longitude
111.08533°
Altitude
551.368 km
Speed
7.585 km/s
True Right ascension
18h 54m 53s
True Declination
0° 00' 00"
Sunlit
Object was in full shadow at epoch
Visualization orbit readout
Latitude
Unknown
Longitude
Unknown
Altitude
Unknown
Speed
Unknown
Apparent Right ascension
Unknown
Apparent Declination
Unknown
Sunlit
N/A
Visualization observer readout
Local Sidereal Time
17:22:52
Azimuth
Unknown
Elevation
Unknown
Doppler factor
Unknown
Orbital elements
Apogee altitude
555.937 km
Perigee altitude
541.659 km
Semi-major axis
6,926.935 km
Eccentricity
0.00103
Inclination
34.9994°
RAAN
283.7225°
Arg. of periapsis
195.3122°
True anomaly
164.75867°
Mean anomaly
164.7276°
Eccentric anomaly
164.74314°
Mean motion
3.76471 °/min
Orbital period
95.62 mins
BSTAR
0.00018091
Loading maneuver chart data...
Computing Atmospheric mass density...
Loading historical data...
Loading historical data...
Loading historical data...
Loading historical data...
Loading historical data...
Loading historical data...
Loading historical data...
Other satellites on launch #76 in the year 2020 (2020-10-26 UTC)

Documentation

Showing up to 5 results
|